Flag for China Weather past 2 weeks in Hohhot, Inner Mongolia, China

Now
64 °F

Haze.


Feels Like: 64 °F
Forecast: 40 / 56 °F
Wind: 3 mph from Southwest

Location: Hohhot Airport

Current Time: Oct 25, 2014 at 5:48:55 PM

Latest Report: Oct 25, 2014 at 5:00 PM


Visibility: 3 mi

Pressure: 29.98 "Hg

Humidity: 37%

Dew point: 37 °F

Location of HohhotLocation

Historic Weather in Hohhot — Graph

°F

Hohhot temperature yesterday

Maximum temperature yesterday: 66 °F (at 3:00 PM)
Minimum temperature yesterday: 36 °F (at 7:00 AM)
Average temperature yesterday: 50 °F

Past Weeks' High & Low Weather Summary

 TemperatureHumidityPressure
High68 °F (Oct 25, 3:00 PM)100% (Oct 11, 6:00 AM)30.60 "Hg (Oct 11, 6:00 AM)
Low27 °F (Oct 13, 6:00 AM)21% (Oct 15, 3:00 PM)29.86 "Hg (Oct 24, 2:00 PM)
Average47 °F61%30.14 "Hg
* Reported Oct 10 4:00 PM — Oct 25 4:00 PM, Hohhot, Weather by CustomWeather, © 2014

Note: Actual official high and low records may vary slightly from our data, if they occured in-between our weather recording intervals... More about our weather records

Advertising

Hohhot weather history for previous 24 hours

 ConditionsComfort  
Time TempWeatherWind HumidityBarometerVisibility
4:00 PM
Oct 25
68 °FHaze.3 mph30%29.95 "Hg2 mi
3:00 PM68 °FClear.6 mph30%29.95 "Hg4 mi
2:00 PM66 °FClear.3 mph30%29.95 "Hg6 mi
1:00 PM66 °FClear.3 mph30%29.95 "Hg5 mi
12:00 PM63 °FSunny.3 mph34%29.98 "Hg10 mi
11:00 AM61 °FPassing clouds.3 mph34%30.01 "HgN/A
10:00 AM57 °FClear.1 mph44%30.01 "Hg5 mi
9:00 AM50 °FClear.3 mph58%30.01 "Hg5 mi
8:00 AM43 °FClear.3 mph71%29.98 "Hg4 mi
7:00 AM37 °FSunny.3 mph81%29.95 "Hg10 mi
6:00 AM37 °FClear.3 mph81%29.95 "Hg4 mi
5:00 AM39 °FClear.3 mph75%29.95 "Hg4 mi
4:00 AM39 °FClear.6 mph75%29.92 "Hg4 mi
3:00 AM41 °FClear.6 mph76%29.92 "Hg4 mi
2:00 AM41 °FClear.6 mph76%29.95 "Hg4 mi
1:00 AM43 °FClear.3 mph71%29.95 "Hg4 mi
12:00 AM43 °FClear.1 mph71%29.92 "Hg4 mi
11:00 PM
Oct 24
45 °FClear.3 mph66%29.92 "Hg4 mi
10:00 PM45 °FClear.3 mph71%29.92 "Hg3 mi
9:00 PM50 °FClear.3 mph58%29.92 "Hg3 mi
8:00 PM50 °FClear.3 mph58%29.89 "Hg3 mi
7:00 PM54 °FClear.6 mph51%29.89 "Hg3 mi
6:00 PM61 °FClear.3 mph39%29.86 "Hg2 mi
5:00 PM64 °FClear.3 mph34%29.86 "Hg3 mi
Weather by CustomWeather, © 2014

See weather overviewHow to use our weather pages